カタログに戻る

CZ-4 DEB

運用中SSO
NORAD 20848·DEBRIS·🇨🇳 China

打ち上げ Sep 3, 1990 から Taiyuan Satellite Launch Center

Loading…

次のパス (今後24時間)

TLE

最新Source: Space-Track

元期: Sep 14, 2026, 07:59 UTC

1 20848U 90081L   26257.33321360  .00000580  00000-0  51239-3 0  9999
2 20848  99.0656  16.8352 0204556 265.8280 115.3403 13.80079760799167

AllMySatでCZ-4 DEBをリアルタイム追跡

Download on the App Store